User: anonymous   Login
Location: ??????
(55.0357°N, 38.6195°E)
Time: 15:19:43
(UTC+00:00)
Language:

Meteor 1-27 Rocket - Orbit

View from above orbital plane
View from above orbital plane
View from above satellite
View from above satellite

Ground track
Ground track

The orbit data is extracted from the following two-line orbital elements,

1 09904U 77024B   24165.55708912  .00000044  00000-0  18541-4 0  9998
2 09904  81.2604 182.3503 0054872 337.6622  22.2157 14.07105233421600
Epoch (UTC): 13 June 2024 13:22:12
Eccentricity: 0.0054872
inclination: 81.2604°
perigee height: 829 km
apogee height: 909 km
right ascension of ascending node: 182.3503°
argument of perigee: 337.6622°
revolutions per day: 14.07105233
mean anomaly at epoch: 22.2157°
orbit number at epoch: 42160

The dashed part of the orbit path shows where the satellite is in the earth's shadow,  

DLR